FW1908 Weather Reports


time (UTC)temp
C
wind
direction
speed
KPH
gust
KPH
rain 1hr
cm
rain 24hr
cm
rain mn
cm
humidity
%
barometer
mb
20260508164800 21 79 4.8 11.3 0.00 0.28 0.03 45 1017.8
20260508164257 21 84 3.2 9.7 0.00 0.28 0.03 43 1018.0
20260508163758 21 77 4.8 9.7 0.00 0.28 0.03 47 1017.9
20260508163258 21 202 4.8 12.9 0.00 0.28 0.03 45 1017.9
20260508162758 20 83 4.8 12.9 0.00 0.28 0.03 48 1018.0
20260508162258 20 78 3.2 6.4 0.00 0.28 0.03 44 1018.0
20260508161758 20 5 3.2 11.3 0.00 0.28 0.03 45 1018.1
20260508161259 20 99 3.2 11.3 0.00 0.28 0.03 46 1018.2
20260508160752 20 298 3.2 4.8 0.00 0.28 0.03 47 1018.2
20260508160249 20 58 1.6 8.0 0.00 0.28 0.03 48 1018.3
20260508155748 20 216 1.6 8.0 0.00 0.28 0.03 51 1018.4
20260508155248 20 236 3.2 8.0 0.00 0.28 0.03 48 1018.5
20260508154746 20 261 4.8 8.0 0.00 0.28 0.03 48 1018.5
20260508154246 19 253 3.2 8.0 0.00 0.28 0.03 50 1018.5
20260508153746 19 227 3.2 6.4 0.00 0.28 0.03 50 1018.6
20260508153507 19 329 3.2 9.7 0.00 0.28 0.03 50 1018.6
20260508153006 19 51 3.2 9.7 0.00 0.28 0.03 49 1018.6
20260508152246 19 9 4.8 9.7 0.00 0.28 0.03 54 1018.5
20260508151744 18 130 6.4 14.5 0.00 0.28 0.03 58 1018.5
20260508151242 18 42 4.8 14.5 0.00 0.28 0.03 55 1018.5
20260508150741 18 46 3.2 12.9 0.00 0.28 0.03 55 1018.6
20260508150242 18 67 3.2 6.4 0.00 0.28 0.03 57 1018.6
20260508145743 17 109 3.2 11.3 0.00 0.28 0.03 58 1018.6
20260508145242 17 105 4.8 11.3 0.00 0.28 0.03 62 1018.6
20260508144741 17 58 4.8 11.3 0.00 0.28 0.03 64 1018.6
20260508144241 17 60 3.2 11.3 0.00 0.28 0.03 62 1018.6
20260508143741 16 115 3.2 11.3 0.00 0.28 0.03 66 1018.7
20260508143242 16 57 4.8 12.9 0.00 0.28 0.03 67 1018.6
20260508142743 16 116 4.8 12.9 0.00 0.30 0.03 72 1018.7
20260508142242 15 86 3.2 6.4 0.00 0.30 0.03 74 1018.7
20260508142000 15 76 3.2 11.3 0.00 0.33 0.03 80 1018.7
20260508141242 15 78 3.2 11.3 0.00 0.33 0.03 83 1018.7
20260508140738 14 126 3.2 9.7 0.00 0.36 0.03 85 1018.7
20260508140237 13 90 4.8 11.3 0.00 0.36 0.03 87 1018.8
20260508135737 13 88 3.2 11.3 0.00 0.36 0.03 90 1018.8
20260508135238 13 92 3.2 6.4 0.00 0.36 0.03 92 1018.7
20260508134959 12 87 1.6 6.4 0.00 0.36 0.03 92 1018.7
20260508134238 12 84 3.2 11.3 0.00 0.36 0.03 93 1018.7
20260508133956 12 90 3.2 11.3 0.00 0.38 0.03 93 1018.7
20260508133237 12 78 3.2 8.0 0.00 0.38 0.03 93 1018.6
20260508133003 12 28 1.6 9.7 0.00 0.38 0.03 94 1018.6
20260508132234 12 29 1.6 9.7 0.00 0.38 0.03 94 1018.6
20260508131734 12 101 3.2 12.9 0.00 0.38 0.03 95 1018.6
20260508131234 12 107 3.2 12.9 0.00 0.38 0.03 95 1018.6
20260508130734 12 89 1.6 3.2 0.00 0.41 0.03 95 1018.6
20260508130234 12 88 0.0 4.8 0.00 0.41 0.03 95 1018.5
20260508130003 11 90 0.0 4.8 0.00 0.41 0.03 94 1018.4
20260508125235 11 90 1.6 9.7 0.00 0.43 0.03 94 1018.5
20260508125002 11 90 1.6 9.7 0.00 0.46 0.03 95 1018.3
20260508124235 11 80 1.6 6.4 0.03 0.48 0.03 95 1018.2
20260508123731 11 40 0.0 4.8 0.03 0.53 0.03 95 1018.1
20260508123231 11 53 0.0 3.2 0.03 0.61 0.03 95 1018.1
20260508122730 11 54 0.0 3.2 0.03 0.74 0.03 95 1018.1
20260508122227 11 55 0.0 3.2 0.03 0.89 0.03 95 1018.0
20260508121725 11 54 0.0 1.6 0.03 1.07 0.03 95 1018.0
20260508121225 11 298 0.0 0.0 0.03 1.22 0.03 94 1017.9
20260508120725 11 298 0.0 0.0 0.03 1.52 0.03 95 1017.9
20260508120223 11 298 0.0 0.0 0.03 1.60 0.03 94 1017.9
20260508115952 10 297 0.0 0.0 0.03 1.65 0.03 94 1017.8
20260508115224 10 297 0.0 0.0 0.03 1.68 0.03 94 1017.9
20260508114723 10 297 0.0 0.0 0.03 1.70 0.03 94 1017.8
20260508114442 10 297 0.0 0.0 0.00 1.70 0.00 94 1017.5
20260508113717 10 297 0.0 0.0 0.00 1.80 0.00 94 1017.4
20260508113216 10 297 0.0 0.0 0.00 1.91 0.00 94 1017.4
20260508112715 10 123 0.0 0.0 0.00 1.96 0.00 93 1017.3
20260508112426 10 123 0.0 0.0 0.00 1.96 0.00 93 1017.2
20260508111703 10 123 0.0 0.0 0.00 1.96 0.00 93 1017.2
20260508111202 10 123 0.0 0.0 0.00 1.96 0.00 93 1017.0
20260508110701 10 123 0.0 0.0 0.00 1.96 0.00 93 1017.0
20260508110157 10 123 0.0 0.0 0.00 1.96 0.00 93 1016.9
20260508105657 10 123 0.0 0.0 0.00 1.96 0.00 93 1016.9
20260508105157 10 123 0.0 0.0 0.00 1.96 0.00 93 1016.8
20260508104657 10 123 0.0 0.0 0.00 1.96 0.00 93 1016.8
20260508104159 10 126 0.0 0.0 0.00 1.96 0.00 93 1016.6
20260508103924 10 126 0.0 0.0 0.00 1.96 0.00 93 1016.5
20260508103155 10 126 0.0 0.0 0.00 1.96 0.00 93 1016.4
20260508102654 10 126 0.0 0.0 0.00 1.96 0.00 93 1016.2
20260508102153 10 323 0.0 0.0 0.00 1.96 0.00 93 1016.1
20260508101653 10 26 0.0 0.0 0.00 1.96 0.00 93 1016.1
20260508101153 10 26 0.0 0.0 0.00 1.96 0.00 93 1016.1
20260508100653 10 26 0.0 0.0 0.00 1.96 0.00 93 1016.1
20260508100154 10 26 0.0 0.0 0.00 1.96 0.00 93 1016.1
20260508095654 10 26 0.0 0.0 0.00 1.96 0.00 93 1016.1
20260508095152 10 26 0.0 0.0 0.00 1.96 0.00 93 1015.9
20260508094650 10 26 0.0 0.0 0.00 1.96 0.00 93 1016.0
20260508094150 10 26 0.0 0.0 0.00 1.96 0.00 93 1015.9
20260508093902 10 26 0.0 0.0 0.00 1.96 0.00 93 1015.9
20260508093138 10 26 0.0 0.0 0.00 1.98 0.00 93 1015.9
20260508092633 10 26 0.0 0.0 0.00 1.98 0.00 93 1015.8
20260508091620 11 26 0.0 0.0 0.00 2.03 0.00 93 1015.8
20260508091116 11 26 0.0 0.0 0.00 2.03 0.00 93 1015.7
20260508090608 11 26 0.0 0.0 0.00 2.03 0.00 93 1015.7
20260508090104 11 26 0.0 0.0 0.00 2.06 0.00 93 1015.6
20260508085556 11 26 0.0 0.0 0.00 2.06 0.00 93 1015.7
20260508085052 11 26 0.0 0.0 0.00 2.08 0.00 93 1015.7
20260508084544 11 26 0.0 0.0 0.00 2.08 0.00 93 1015.6
20260508084038 11 26 0.0 0.0 0.00 2.11 0.00 93 1015.6
20260508083532 11 26 0.0 0.0 0.00 2.13 0.00 93 1015.6
20260508083026 11 26 0.0 0.0 0.00 2.13 0.00 93 1015.4
20260508082520 11 26 0.0 0.0 0.00 2.13 0.00 93 1015.5
20260508082238 11 26 0.0 0.0 0.00 2.16 0.00 93 1015.5
20260508081508 11 26 0.0 0.0 0.00 2.16 0.00 93 1015.4
20260508081222 11 26 0.0 0.0 0.00 2.18 0.00 93 1015.4
20260508080457 11 26 0.0 0.0 0.00 2.18 0.00 93 1015.2
20260508075950 12 26 0.0 0.0 0.00 2.21 0.00 93 1015.1
20260508075444 12 26 0.0 0.0 0.00 2.26 0.00 93 1015.1
20260508074938 12 26 0.0 0.0 0.00 2.29 0.00 93 1015.1
20260508074654 12 26 0.0 0.0 0.00 2.31 0.00 93 1015.2
20260508073926 12 26 0.0 0.0 0.00 2.36 0.00 93 1015.1
20260508073645 12 26 0.0 0.0 0.00 2.39 0.00 93 1015.0
20260508072914 12 26 0.0 0.0 0.00 2.41 0.00 93 1015.0
20260508072629 12 26 0.0 0.0 0.00 2.44 0.00 93 1014.9
20260508071902 12 26 0.0 0.0 0.00 2.46 0.00 93 1014.9
20260508071357 12 26 0.0 0.0 0.00 2.51 0.00 93 1014.8
20260508070850 12 26 0.0 0.0 0.00 2.57 0.00 93 1014.9
20260508070602 12 26 0.0 0.0 0.00 2.64 0.00 93 1014.9
20260508065838 12 26 0.0 0.0 0.00 2.69 0.00 93 1014.9
20260508065332 12 26 0.0 0.0 0.00 2.79 0.00 93 1014.9
20260508064827 12 26 0.0 0.0 0.00 2.84 0.00 93 1014.8
20260508064320 12 26 0.0 0.0 0.00 2.92 0.00 93 1014.8
20260508063814 12 26 0.0 0.0 0.00 3.02 0.00 92 1014.7
20260508063308 12 26 0.0 0.0 0.00 3.12 0.00 93 1014.8
20260508062802 12 26 0.0 0.0 0.00 3.33 0.00 93 1014.9
20260508062517 12 26 0.0 0.0 0.00 3.61 0.00 93 1015.0
20260508061751 12 26 0.0 0.0 0.00 3.89 0.00 93 1015.0
20260508061506 13 26 0.0 0.0 0.00 4.04 0.00 93 1015.0
20260508060738 13 26 0.0 0.0 0.00 4.17 0.00 92 1015.0
20260508060232 13 26 0.0 0.0 0.00 4.34 0.00 93 1014.9
20260508055727 13 26 0.0 0.0 0.00 4.42 0.00 93 1015.0
20260508055220 13 26 0.0 0.0 0.00 4.47 0.00 92 1015.1
20260508054945 13 26 0.0 0.0 0.00 4.47 0.00 93 1015.1
20260508054208 13 26 0.0 0.0 0.00 4.50 0.00 93 1014.9
20260508053704 13 26 0.0 0.0 0.00 4.50 0.00 93 1014.9
20260508053423 13 26 0.0 0.0 0.00 4.52 0.00 93 1014.8
20260508052918 13 26 0.0 0.0 0.00 4.52 0.00 93 1014.8
20260508052155 13 26 0.0 0.0 0.00 4.52 0.00 93 1014.9
20260508051656 13 26 0.0 0.0 0.00 4.52 0.00 93 1014.8
20260508051153 13 26 0.0 0.0 0.00 4.52 0.00 93 1014.9
20260508050150 13 26 0.0 0.0 0.00 4.52 0.00 93 1014.7
20260508045646 13 26 0.0 0.0 0.00 4.52 0.00 93 1014.7
20260508045408 13 26 0.0 0.0 0.00 4.52 0.00 92 1014.7
20260508044647 13 26 0.0 0.0 0.00 4.52 0.00 92 1014.7
20260508044145 13 26 0.0 0.0 0.00 4.52 0.00 92 1014.6
20260508043913 14 26 0.0 0.0 0.00 4.52 0.00 92 1014.5
20260508043143 14 26 0.0 0.0 0.00 4.52 0.00 92 1014.4
20260508042643 14 26 0.0 0.0 0.00 4.52 0.00 93 1014.5
20260508042143 14 26 0.0 0.0 0.00 4.52 0.00 93 1014.4
20260508041641 14 26 0.0 0.0 0.00 4.52 0.00 93 1014.3
20260508041405 14 26 0.0 0.0 0.00 4.52 0.00 93 1014.1
20260508040639 14 26 0.0 0.0 0.00 4.52 0.00 92 1014.4
20260508040139 14 26 0.0 0.0 0.00 4.52 0.00 92 1014.3
20260508035856 14 26 0.0 0.0 0.00 4.52 4.52 92 1014.3
20260508035127 14 26 0.0 0.0 0.00 4.52 4.52 92 1014.4
20260508034621 14 26 0.0 0.0 0.00 4.52 4.52 92 1014.4
20260508034337 14 26 0.0 0.0 0.00 4.52 4.52 92 1014.0
20260508033608 14 26 0.0 0.0 0.00 4.52 4.52 92 1014.1
20260508033103 14 26 0.0 0.0 0.00 4.52 4.52 92 1014.0
20260508032557 14 26 0.0 0.0 0.00 4.52 4.52 92 1014.1
20260508032051 14 26 0.0 0.0 0.00 4.55 4.52 93 1014.3
20260508031551 14 26 0.0 0.0 0.00 4.55 4.52 93 1014.3
20260508031049 14 26 0.0 0.0 0.00 4.57 4.52 93 1014.0
20260508030549 14 26 0.0 0.0 0.00 4.57 4.52 92 1014.0
20260508030044 14 26 0.0 0.0 0.00 4.60 4.52 92 1014.3
20260508025807 15 26 0.0 0.0 0.00 4.60 4.52 92 1014.1
20260508025045 15 26 0.0 1.6 0.00 4.62 4.52 92 1014.0
20260508024543 15 26 0.0 1.6 0.00 4.80 4.52 92 1014.0
20260508024041 15 26 0.0 0.0 0.00 4.85 4.52 92 1013.9
20260508023539 15 26 0.0 0.0 0.00 4.95 4.52 92 1013.7
20260508023258 15 26 0.0 0.0 0.00 5.03 4.52 92 1013.8
20260508022753 15 26 0.0 0.0 0.00 5.08 4.52 92 1013.8
20260508022033 15 26 0.0 1.6 0.00 5.11 4.52 92 1013.7
20260508021530 15 26 0.0 1.6 0.00 5.13 4.52 92 1013.7
20260508021029 15 26 0.0 1.6 0.00 5.16 4.52 92 1013.5
20260508020527 15 26 0.0 3.2 0.00 5.18 4.52 92 1013.4
20260508020025 15 26 0.0 3.2 0.00 5.18 4.52 92 1013.3
20260508015523 15 26 0.0 1.6 0.00 5.18 4.52 92 1013.2
20260508015021 15 23 0.0 1.6 0.00 5.18 4.52 92 1013.1
20260508014744 15 23 0.0 0.0 0.00 5.23 4.52 92 1013.1
20260508014019 15 23 0.0 1.6 0.00 5.26 4.52 92 1012.9
20260508013737 15 23 0.0 1.6 0.00 5.26 4.52 92 1012.8
20260508013017 15 23 0.0 1.6 0.00 5.26 4.52 92 1012.8
20260508012737 15 23 0.0 0.0 0.00 5.26 4.52 92 1012.7
20260508012013 15 23 0.0 0.0 0.00 5.26 4.52 92 1012.7
20260508011511 15 23 0.0 0.0 0.00 5.26 4.52 92 1012.6
20260508011011 15 23 0.0 0.0 0.00 5.28 4.52 92 1012.4
20260508010511 15 23 0.0 0.0 0.00 5.28 4.52 91 1012.4
20260508010229 15 23 0.0 0.0 0.00 5.36 4.52 91 1012.6
20260508005509 15 23 0.0 0.0 0.00 5.44 4.52 91 1012.5
20260508005008 15 23 0.0 3.2 0.03 5.77 4.52 91 1012.3
20260508004508 15 23 0.0 4.8 0.08 5.79 4.52 91 1012.2
20260508004008 15 23 1.6 4.8 0.08 5.79 4.52 91 1011.9
20260508003505 15 23 1.6 8.0 0.10 5.79 4.52 90 1011.8
20260508003005 15 127 1.6 8.0 0.13 5.79 4.52 90 1011.7
20260508002503 15 113 0.0 3.2 0.15 5.79 4.52 90 1011.7
20260508002002 15 113 0.0 3.2 0.18 5.79 4.52 90 1011.7
20260508001732 15 113 1.6 4.8 0.25 5.79 4.52 90 1011.7
20260508001003 16 117 1.6 12.9 0.25 5.79 4.52 89 1011.2
20260508000503 16 80 1.6 12.9 0.25 5.79 4.52 89 1011.2
20260508000003 16 31 1.6 6.4 0.25 5.79 4.52 89 1011.0
20260507235503 16 27 1.6 11.3 0.25 5.79 4.52 88 1010.6
20260507235235 16 115 3.2 14.5 0.23 5.77 4.50 87 1010.3
20260507233503 17 347 3.2 12.9 0.15 5.69 4.42 84 1009.8
20260507233003 17 76 3.2 12.9 0.13 5.66 4.39 83 1009.8
20260507232503 17 23 4.8 11.3 0.10 5.64 4.37 82 1010.1
20260507232001 17 63 4.8 11.3 0.08 5.61 4.37 80 1010.0
20260507231501 18 351 6.4 14.5 0.00 5.54 4.27 77 1010.5
20260507231001 18 337 4.8 14.5 0.00 5.54 4.27 76 1009.7
20260507230720 19 97 4.8 16.1 0.00 5.54 4.27 76 1009.4
20260507230001 19 115 4.8 16.1 0.00 5.54 4.27 75 1009.3
20260507225501 20 52 4.8 14.5 0.00 5.54 4.27 74 1009.5
20260507225001 20 24 4.8 25.7 0.00 5.54 4.27 72 1009.4
20260507224724 21 41 6.4 25.7 0.00 5.54 4.27 71 1009.0
20260507224001 22 340 4.8 12.9 0.00 5.54 4.27 68 1008.9
20260507223502 23 338 4.8 22.5 0.00 5.54 4.27 68 1008.6
20260507223003 23 26 4.8 22.5 0.00 5.54 4.27 65 1008.4
20260507222502 24 10 6.4 14.5 0.00 5.54 4.27 65 1008.4
20260507222223 25 355 6.4 14.5 0.00 5.54 4.27 68 1008.0
20260507221502 25 315 6.4 17.7 0.00 5.54 4.27 67 1007.6
20260507221001 25 275 6.4 17.7 0.00 5.54 4.27 67 1007.5
20260507220501 25 288 4.8 11.3 0.00 5.54 4.27 69 1007.5
20260507220001 25 323 6.4 12.9 0.00 5.54 4.27 69 1007.5
20260507215501 25 269 6.4 12.9 0.00 5.54 4.27 68 1007.4
20260507215224 25 257 6.4 12.9 0.00 5.54 4.27 68 1007.3
20260507214721 25 254 4.8 12.9 0.00 5.54 4.27 68 1007.4
20260507214001 25 304 3.2 11.3 0.00 5.54 4.27 69 1007.2
20260507213500 25 232 4.8 12.9 0.00 5.54 4.27 69 1007.2
20260507212959 25 284 4.8 14.5 0.00 5.54 4.27 69 1007.1
20260507212459 25 240 4.8 12.9 0.00 5.54 4.27 68 1007.1
20260507211957 25 326 4.8 12.9 0.00 5.54 4.27 67 1007.1
20260507211457 25 242 4.8 12.9 0.00 5.54 4.27 68 1007.3
20260507211221 25 329 4.8 9.7 0.00 5.54 4.27 67 1007.3
20260507210456 25 209 4.8 9.7 0.00 5.54 4.27 66 1007.4
20260507210212 25 243 4.8 11.3 0.00 5.54 4.27 66 1007.4
20260507205449 25 287 3.2 11.3 0.00 5.54 4.27 66 1007.4
20260507205211 25 157 4.8 11.3 0.00 5.54 4.27 65 1007.2
20260507204449 25 283 4.8 11.3 0.00 5.54 4.27 65 1007.1
20260507203947 25 267 4.8 14.5 0.00 5.54 4.27 65 1007.4
20260507203444 25 210 4.8 16.1 0.00 5.54 4.27 66 1007.4
20260507202944 25 236 4.8 12.9 0.00 5.54 4.27 66 1007.4
20260507202446 25 312 4.8 12.9 0.00 5.54 4.27 66 1007.5
20260507201945 25 267 3.2 12.9 0.00 5.54 4.27 65 1007.5
20260507201658 25 270 4.8 16.1 0.00 5.54 4.27 65 1007.6
20260507200940 26 279 6.4 16.1 0.00 5.54 4.27 65 1007.6
20260507200442 26 299 6.4 12.9 0.00 5.54 4.27 65 1007.5
20260507195940 25 250 6.4 12.9 0.00 5.54 4.27 66 1007.7
20260507195440 25 272 4.8 12.9 0.00 5.54 4.27 67 1007.8
20260507194938 25 257 4.8 12.9 0.00 5.54 4.27 70 1007.9
20260507194436 25 271 3.2 12.9 0.00 5.54 4.27 69 1007.9
20260507193936 25 294 4.8 11.3 0.00 5.54 4.27 70 1008.1
20260507193436 25 240 4.8 11.3 0.00 5.54 4.27 69 1008.4
20260507192936 25 239 6.4 14.5 0.00 5.54 4.27 69 1008.3
20260507192430 25 291 6.4 14.5 0.00 5.54 4.27 68 1008.4
20260507191924 25 320 4.8 12.9 0.00 5.54 4.27 72 1008.4
20260507191418 24 316 3.2 8.0 0.00 5.54 4.27 73 1008.5
20260507191129 24 225 6.4 14.5 0.00 5.54 4.27 76 1008.6
20260507190405 23 267 8.0 17.7 0.00 5.54 4.27 74 1008.6
20260507185900 23 331 6.4 17.7 0.00 5.54 4.27 76 1008.7
20260507185353 23 233 6.4 17.7 0.00 5.54 4.27 78 1008.6
20260507184848 23 276 6.4 14.5 0.00 5.54 4.27 79 1008.6
20260507184341 22 236 4.8 17.7 0.00 5.54 4.27 83 1008.5
20260507183836 22 251 6.4 17.7 0.00 5.54 4.27 84 1008.5
20260507183330 22 326 4.8 14.5 0.00 5.54 4.27 86 1008.6
20260507182825 21 260 4.8 11.3 0.00 5.54 4.27 88 1008.5
20260507182543 21 302 4.8 11.3 0.00 5.56 4.27 89 1008.6
20260507181812 21 332 3.2 6.4 0.00 5.61 4.27 91 1008.5
20260507181306 21 320 4.8 9.7 0.00 5.64 4.27 92 1008.4
20260507180759 21 285 3.2 9.7 0.00 5.64 4.27 94 1008.4
20260507180254 21 324 3.2 9.7 0.00 5.66 4.27 93 1008.6
20260507175747 20 331 4.8 16.1 0.00 5.71 4.27 94 1008.7
20260507175500 20 332 6.4 16.1 0.00 5.71 4.27 95 1008.9
20260507174735 20 296 4.8 12.9 0.00 5.71 4.27 95 1008.9
20260507174230 20 323 6.4 14.5 0.00 5.71 4.27 96 1009.0
20260507173724 20 271 4.8 14.5 0.00 5.71 4.27 96 1009.3
20260507173218 20 270 3.2 8.0 0.00 5.71 4.27 96 1009.4
20260507172712 20 285 1.6 4.8 0.00 5.71 4.27 96 1009.4
20260507172207 20 277 3.2 9.7 0.00 5.71 4.27 96 1009.0
20260507171659 20 263 4.8 9.7 0.00 5.71 4.27 96 1009.0
20260507171154 20 331 4.8 9.7 0.00 5.71 4.27 95 1009.3
20260507170648 20 332 3.2 9.7 0.00 5.71 4.27 96 1009.3
20260507170141 20 311 3.2 6.4 0.00 5.71 4.27 96 1009.4
20260507165636 20 284 3.2 8.0 0.00 5.71 4.27 96 1009.2